GW3011 Weather Reports


time (UTC)temp
F
wind
direction
speed
knots
gust
knots
rain 1hr
in
rain 24hr
in
rain mn
in
humidity
%
barometer
mb
20260904232449 82 154 0.0 0.0 0.00 0.00 0.00 59 1009.8
20260904231941 82 178 0.0 0.0 0.00 0.00 0.00 58 1010.0
20260904231436 82 165 0.0 0.0 0.00 0.00 0.00 59 1010.1
20260904230931 82 200 0.0 0.0 0.00 0.00 0.00 57 1009.8
20260904230429 83 171 0.0 0.0 0.00 0.00 0.00 57 1009.8
20260904225924 83 175 0.0 0.0 0.00 0.00 0.00 57 1009.8
20260904225422 83 163 0.0 0.0 0.00 0.00 0.00 57 1010.0
20260904224917 83 152 0.0 0.0 0.00 0.00 0.00 56 1009.9
20260904224413 85 165 0.0 0.0 0.00 0.00 0.00 55 1009.9
20260904223912 85 208 0.0 0.0 0.00 0.00 0.00 53 1009.7
20260904223411 85 224 0.0 0.0 0.00 0.00 0.00 52 1009.9
20260904222908 84 206 0.0 0.0 0.00 0.00 0.00 53 1009.9
20260904222403 85 213 0.0 0.0 0.00 0.00 0.00 53 1010.0
20260904221903 85 207 0.0 0.0 0.00 0.00 0.00 52 1010.0
20260904221357 86 177 0.0 0.0 0.00 0.00 0.00 52 1009.9
20260904220853 85 176 0.0 0.0 0.00 0.00 0.00 52 1010.0
20260904220352 85 174 0.0 0.0 0.00 0.00 0.00 51 1009.9
20260904215848 86 194 0.0 0.0 0.00 0.00 0.00 51 1010.0
20260904215342 86 184 0.0 0.0 0.00 0.00 0.00 51 1009.6
20260904214838 86 213 0.0 0.0 0.00 0.00 0.00 51 1009.8
20260904214334 87 179 0.0 0.0 0.00 0.00 0.00 49 1009.8
20260904213832 87 171 0.0 0.0 0.00 0.00 0.00 50 1009.6
20260904213327 87 152 0.0 0.0 0.00 0.00 0.00 50 1009.6
20260904212824 86 186 0.0 0.0 0.00 0.00 0.00 51 1009.4
20260904212323 86 162 0.0 0.0 0.00 0.00 0.00 51 1009.5
20260904211819 86 111 0.0 0.0 0.00 0.00 0.00 51 1009.4
20260904211314 86 226 0.0 0.0 0.00 0.00 0.00 51 1009.5
20260904210808 87 155 0.0 0.0 0.00 0.00 0.00 50 1009.4
20260904210302 89 199 0.0 0.0 0.00 0.00 0.00 49 1009.9
20260904205759 87 124 0.0 0.0 0.00 0.00 0.00 50 1009.8
20260904205254 87 176 0.0 0.0 0.00 0.00 0.00 51 1010.0
20260904204751 87 187 0.0 0.0 0.00 0.00 0.00 50 1009.8
20260904204247 87 217 0.0 0.0 0.00 0.00 0.00 51 1009.7
20260904203743 87 163 0.0 0.0 0.00 0.00 0.00 52 1010.1
20260904203239 87 182 0.0 0.0 0.00 0.00 0.00 50 1009.9
20260904202734 87 194 0.0 0.9 0.00 0.00 0.00 49 1009.7
20260904202230 87 203 0.0 0.0 0.00 0.00 0.00 49 1009.9
20260904201725 87 197 0.0 0.0 0.00 0.00 0.00 50 1009.8
20260904201220 87 185 0.0 0.0 0.00 0.00 0.00 51 1010.0
20260904200715 87 135 0.0 0.0 0.00 0.00 0.00 51 1010.0
20260904200209 86 201 0.0 0.0 0.00 0.00 0.00 51 1010.0
20260904195708 88 208 0.0 0.0 0.00 0.00 0.00 49 1010.3
20260904195201 87 181 0.0 0.0 0.00 0.00 0.00 49 1010.3
20260904194701 87 158 0.0 0.0 0.00 0.00 0.00 51 1010.3
20260904194155 86 192 0.0 0.0 0.00 0.00 0.00 52 1010.3
20260904193651 86 217 0.0 0.0 0.00 0.00 0.00 51 1010.3
20260904193148 86 220 0.0 0.0 0.00 0.00 0.00 51 1010.4
20260904192647 87 134 0.0 0.0 0.00 0.00 0.00 51 1010.4
20260904192143 87 186 0.0 0.0 0.00 0.00 0.00 50 1010.4
20260904191639 86 212 0.0 0.0 0.00 0.00 0.00 50 1010.3
20260904191136 86 234 0.0 0.0 0.00 0.00 0.00 50 1010.5
20260904190632 87 205 0.0 0.0 0.00 0.00 0.00 51 1010.5
20260904190127 86 167 0.0 0.0 0.00 0.00 0.00 51 1010.7
20260904185623 86 173 0.0 0.0 0.00 0.00 0.00 51 1010.5
20260904185118 85 208 0.0 0.0 0.00 0.00 0.00 51 1010.7
20260904184617 86 145 0.0 0.0 0.00 0.00 0.00 51 1011.0
20260904184112 87 142 0.0 0.0 0.00 0.00 0.00 51 1010.5
20260904183608 85 215 0.0 0.0 0.00 0.00 0.00 51 1010.6
20260904183103 86 194 0.0 0.0 0.00 0.00 0.00 51 1011.1
20260904182558 87 174 0.0 0.0 0.00 0.00 0.00 50 1010.7
20260904182052 86 155 0.0 0.0 0.00 0.00 0.00 52 1010.7
20260904181549 86 250 0.0 0.0 0.00 0.00 0.00 51 1010.8
20260904181048 87 141 0.0 0.0 0.00 0.00 0.00 51 1010.6
20260904180543 85 189 0.0 0.0 0.00 0.00 0.00 53 1010.5
20260904180038 86 204 0.0 0.0 0.00 0.00 0.00 53 1010.7
20260904175532 85 177 0.0 0.0 0.00 0.00 0.00 54 1010.8
20260904175030 84 198 0.0 0.0 0.00 0.00 0.00 55 1010.8
20260904174526 86 215 0.0 0.0 0.00 0.00 0.00 54 1010.6
20260904174023 86 153 0.0 0.0 0.00 0.00 0.00 53 1010.6
20260904173522 86 190 0.0 0.0 0.00 0.00 0.00 53 1010.6
20260904173018 87 176 0.0 0.0 0.00 0.00 0.00 53 1010.7
20260904172514 87 98 0.0 0.0 0.00 0.00 0.00 53 1010.7
20260904172013 86 177 0.0 0.0 0.00 0.00 0.00 54 1010.7
20260904171508 85 228 0.0 0.0 0.00 0.00 0.00 55 1010.6
20260904171004 84 196 0.0 0.0 0.00 0.00 0.00 57 1010.8
20260904170459 85 184 0.0 0.0 0.00 0.00 0.00 56 1010.8
20260904165954 85 152 0.0 0.0 0.00 0.00 0.00 56 1010.6
20260904165453 84 184 0.0 0.0 0.00 0.00 0.00 57 1010.8
20260904164953 85 192 0.0 0.0 0.00 0.00 0.00 57 1010.7
20260904164448 86 229 0.0 0.0 0.00 0.00 0.00 52 1010.7
20260904163944 85 223 0.0 0.0 0.00 0.00 0.00 56 1010.8
20260904163438 84 186 0.0 0.0 0.00 0.00 0.00 57 1010.9
20260904162938 84 197 0.0 0.0 0.00 0.00 0.00 57 1010.8
20260904162433 85 227 0.0 0.0 0.00 0.00 0.00 56 1010.7
20260904161928 84 166 0.0 0.0 0.00 0.00 0.00 58 1010.7
20260904161423 85 208 0.0 0.0 0.00 0.00 0.00 56 1010.6
20260904160920 85 220 0.0 0.0 0.00 0.00 0.00 57 1010.9
20260904160414 86 197 0.0 0.0 0.00 0.00 0.00 56 1010.7
20260904155909 85 203 0.0 0.0 0.00 0.00 0.00 56 1010.8
20260904155404 85 228 0.0 0.0 0.00 0.00 0.00 57 1011.0
20260904154902 84 230 0.0 0.0 0.00 0.00 0.00 57 1010.9
20260904154357 85 215 0.0 0.0 0.00 0.00 0.00 56 1011.0
20260904153853 85 176 0.0 0.0 0.00 0.00 0.00 57 1011.0
20260904153348 85 199 0.0 0.0 0.00 0.00 0.00 57 1011.1
20260904152845 85 192 0.0 0.0 0.00 0.00 0.00 58 1011.1
20260904152344 84 226 0.0 0.0 0.00 0.00 0.00 58 1011.3
20260904151839 84 201 0.0 0.0 0.00 0.00 0.00 57 1011.2
20260904151338 85 205 0.0 0.0 0.00 0.00 0.00 58 1011.2
20260904150834 84 219 0.0 0.0 0.00 0.00 0.00 63 1011.4
20260904150329 84 128 0.0 0.0 0.00 0.00 0.00 63 1011.3
20260904145826 84 193 0.0 0.0 0.00 0.00 0.00 63 1011.3
20260904145324 84 197 0.0 0.0 0.00 0.00 0.00 63 1011.5
20260904144819 83 163 0.0 0.0 0.00 0.00 0.00 62 1011.3
20260904144314 84 216 0.0 0.0 0.00 0.00 0.00 63 1011.2
20260904143809 84 223 0.0 0.0 0.00 0.00 0.00 63 1011.3
20260904143306 84 235 0.0 0.0 0.00 0.00 0.00 64 1011.1
20260904142802 83 271 0.0 0.0 0.00 0.00 0.00 65 1011.2
20260904142257 83 220 0.0 0.0 0.00 0.00 0.00 64 1011.2
20260904141752 84 200 0.0 0.0 0.00 0.00 0.00 64 1011.1
20260904141248 82 229 0.0 0.0 0.00 0.00 0.00 68 1011.1
20260904140743 82 176 0.0 0.0 0.00 0.00 0.00 68 1011.0
20260904140238 82 216 0.0 0.0 0.00 0.00 0.00 69 1011.1
20260904135737 82 92 0.0 0.0 0.00 0.00 0.00 69 1011.2
20260904135232 81 238 0.0 0.0 0.00 0.00 0.00 70 1010.9
20260904134728 81 186 0.0 0.0 0.00 0.00 0.00 70 1010.8
20260904134228 81 209 0.0 0.0 0.00 0.00 0.00 70 1010.8
20260904133722 81 161 0.0 0.0 0.00 0.00 0.00 70 1010.8
20260904133219 80 161 0.0 0.0 0.00 0.00 0.00 72 1010.8
20260904132718 81 230 0.0 0.0 0.00 0.00 0.00 71 1010.7
20260904132214 80 219 0.0 0.0 0.00 0.00 0.00 71 1010.8
20260904131713 80 212 0.0 0.0 0.00 0.00 0.00 73 1010.8
20260904131208 80 207 0.0 0.0 0.00 0.00 0.00 74 1010.8
20260904130703 80 303 0.0 0.0 0.00 0.00 0.00 74 1010.9
20260904130202 79 194 0.0 0.0 0.00 0.00 0.00 75 1010.9
20260904125659 79 232 0.0 0.0 0.00 0.00 0.00 76 1010.7
20260904125154 79 186 0.0 0.0 0.00 0.00 0.00 76 1010.7
20260904124649 79 217 0.0 0.0 0.00 0.00 0.00 77 1010.8
20260904124144 79 250 0.0 0.0 0.00 0.00 0.00 77 1010.6
20260904123638 79 217 0.0 0.0 0.00 0.00 0.00 78 1010.7
20260904123135 79 237 0.0 0.0 0.00 0.00 0.00 78 1010.7
20260904122629 78 173 0.0 0.0 0.00 0.00 0.00 79 1010.6
20260904122124 78 214 0.0 0.0 0.00 0.00 0.00 81 1010.7
20260904121619 78 137 0.0 0.0 0.00 0.00 0.00 82 1010.7
20260904121115 77 181 0.0 0.0 0.00 0.00 0.00 83 1010.7
20260904120611 77 204 0.0 0.0 0.00 0.00 0.00 84 1010.5
20260904120107 77 172 0.0 0.0 0.00 0.00 0.00 85 1010.4
20260904115602 77 224 0.0 0.0 0.00 0.00 0.00 86 1010.5
20260904115057 76 200 0.0 0.0 0.00 0.00 0.00 87 1010.6
20260904114556 76 170 0.0 0.0 0.00 0.00 0.00 88 1010.8
20260904114056 76 191 0.0 0.0 0.00 0.00 0.00 88 1010.7
20260904113551 76 138 0.0 0.0 0.00 0.00 0.00 89 1010.6
20260904113050 76 168 0.0 0.0 0.00 0.00 0.00 89 1010.4
20260904112546 75 174 0.0 0.0 0.00 0.00 0.00 90 1010.6
20260904112042 75 165 0.0 0.0 0.00 0.00 0.00 90 1010.3
20260904111537 75 173 0.0 0.0 0.00 0.00 0.00 90 1010.3
20260904111032 75 145 0.0 0.0 0.00 0.00 0.00 90 1010.4
20260904110526 75 119 0.0 0.0 0.00 0.00 0.00 90 1010.3
20260904110022 75 59 0.0 0.0 0.00 0.00 0.00 90 1010.2
20260904105516 75 121 0.0 0.0 0.00 0.00 0.00 90 1010.3
20260904105012 75 167 0.0 0.0 0.00 0.00 0.00 91 1010.0
20260904104507 75 198 0.0 0.0 0.00 0.00 0.00 91 1010.1
20260904104002 75 211 0.0 0.0 0.00 0.00 0.00 90 1010.2
20260904103458 75 216 0.0 0.0 0.00 0.00 0.00 90 1010.2
20260904102954 75 184 0.0 0.0 0.00 0.00 0.00 90 1009.9
20260904102449 75 156 0.0 0.0 0.00 0.00 0.00 90 1010.1
20260904101944 75 187 0.0 0.0 0.00 0.00 0.00 90 1010.1
20260904101441 75 174 0.0 0.0 0.00 0.00 0.00 89 1009.8
20260904100937 75 191 0.0 0.0 0.00 0.00 0.00 89 1010.1
20260904100432 75 189 0.0 0.0 0.00 0.00 0.00 89 1009.9
20260904095926 75 167 0.0 0.0 0.00 0.00 0.00 89 1010.1
20260904095421 75 169 0.0 0.0 0.00 0.00 0.00 90 1009.7
20260904094916 75 175 0.0 0.0 0.00 0.00 0.00 89 1009.8
20260904094411 75 120 0.0 0.0 0.00 0.00 0.00 89 1009.8
20260904093908 75 106 0.0 0.0 0.00 0.00 0.00 88 1009.9
20260904093407 75 123 0.0 0.0 0.00 0.00 0.00 88 1009.8
20260904092857 75 154 0.0 0.0 0.00 0.00 0.00 88 1009.6
20260904092354 75 185 0.0 0.0 0.00 0.00 0.00 87 1009.6
20260904091850 75 103 0.0 0.0 0.00 0.00 0.00 87 1009.8
20260904091345 75 64 0.0 0.0 0.00 0.00 0.00 87 1009.9
20260904090839 75 163 0.0 0.0 0.00 0.00 0.00 87 1009.8
20260904090336 76 112 0.0 0.0 0.00 0.00 0.00 87 1009.8
20260904085830 76 132 0.0 0.0 0.00 0.00 0.00 86 1009.6
20260904085326 76 175 0.0 0.0 0.00 0.00 0.00 86 1009.7
20260904084826 76 145 0.0 0.0 0.00 0.00 0.00 86 1009.9
20260904084322 76 183 0.0 0.0 0.00 0.00 0.00 86 1009.9
20260904083818 76 183 0.0 0.0 0.00 0.00 0.00 86 1009.8
20260904083314 76 161 0.0 0.0 0.00 0.00 0.00 86 1010.1
20260904082809 76 164 0.0 0.0 0.00 0.00 0.00 86 1009.9
20260904082305 76 147 0.0 0.0 0.00 0.00 0.00 87 1009.6
20260904081759 76 188 0.0 0.0 0.00 0.00 0.00 87 1010.1
20260904081254 76 182 0.0 0.0 0.00 0.00 0.00 87 1009.8
20260904080750 76 159 0.0 0.0 0.00 0.00 0.00 86 1009.8
20260904080246 76 123 0.0 0.0 0.00 0.00 0.00 86 1010.0
20260904075742 77 157 0.0 0.0 0.00 0.00 0.00 85 1009.9
20260904075237 77 159 0.0 0.0 0.00 0.00 0.00 85 1009.7
20260904074736 77 119 0.0 0.0 0.00 0.00 0.00 85 1010.0
20260904074230 77 127 0.0 0.0 0.00 0.00 0.00 85 1009.9
20260904073725 77 169 0.0 0.0 0.00 0.00 0.00 84 1009.7
20260904073216 77 165 0.0 0.0 0.00 0.00 0.00 84 1009.3
20260904072712 77 191 0.0 0.0 0.00 0.00 0.00 84 1009.5
20260904072206 77 128 0.0 0.0 0.00 0.00 0.00 83 1009.1
20260904071702 77 107 0.0 0.0 0.00 0.00 0.00 83 1009.1
20260904071157 77 106 0.0 0.0 0.00 0.00 0.00 83 1009.2
20260904070656 77 181 0.0 0.0 0.00 0.00 0.00 83 1009.4
20260904070155 77 120 0.0 0.0 0.00 0.00 0.00 83 1009.4
20260904065650 77 135 0.0 0.0 0.00 0.00 0.00 83 1009.5
20260904065147 77 150 0.0 0.0 0.00 0.00 0.00 84 1009.5
20260904064636 78 178 0.0 0.0 0.00 0.00 0.00 84 1009.5
20260904064131 79 181 0.0 0.0 0.00 0.00 0.00 83 1009.8
20260904063627 79 148 0.0 0.0 0.00 0.00 0.00 81 1010.1
20260904063122 79 166 0.0 0.0 0.00 0.00 0.00 80 1009.9
20260904062619 80 175 0.0 0.0 0.00 0.00 0.00 81 1010.2
20260904062114 79 186 0.0 0.0 0.00 0.00 0.00 84 1010.1
20260904061609 79 168 0.0 0.0 0.00 0.00 0.00 87 1009.9
20260904061106 79 38 0.0 0.0 0.00 0.00 0.00 87 1010.3
20260904060602 79 137 0.0 0.0 0.00 0.00 0.00 87 1010.1
20260904060057 79 149 0.0 0.0 0.00 0.00 0.00 86 1010.2
20260904055552 80 181 0.0 0.0 0.00 0.00 0.00 85 1009.9
20260904055047 80 323 0.0 0.0 0.00 0.00 0.00 84 1010.0
20260904054543 80 141 0.0 0.0 0.00 0.00 0.00 84 1010.1
20260904054039 80 122 0.0 0.0 0.00 0.00 0.00 84 1010.4
20260904053538 80 110 0.0 0.0 0.00 0.00 0.00 84 1010.6
20260904053034 80 87 0.0 0.0 0.00 0.00 0.00 84 1010.6
20260904052530 80 118 0.0 0.0 0.00 0.00 0.00 84 1010.6
20260904052026 80 88 0.0 0.0 0.00 0.00 0.00 84 1010.6
20260904051522 80 93 0.0 0.0 0.00 0.00 0.00 84 1010.8
20260904051021 80 101 0.0 0.0 0.00 0.00 0.00 84 1010.5
20260904050518 80 126 0.0 0.0 0.00 0.00 0.00 84 1010.5
20260904050013 80 98 0.0 0.0 0.00 0.00 0.00 84 1010.7
20260904045508 80 65 0.0 0.0 0.00 0.00 0.00 84 1010.7
20260904045003 80 68 0.0 0.0 0.00 0.00 0.00 83 1010.8
20260904044459 80 120 0.0 0.0 0.00 0.00 0.00 83 1010.8
20260904043955 80 106 0.0 0.0 0.00 0.00 0.00 84 1011.0
20260904043451 80 144 0.0 0.0 0.00 0.00 0.00 84 1011.1
20260904042946 80 109 0.0 0.0 0.00 0.00 0.00 83 1011.0
20260904042442 80 100 0.0 0.0 0.00 0.00 0.00 83 1011.3
20260904041936 80 96 0.0 0.0 0.00 0.00 0.00 83 1011.3
20260904041428 80 116 0.0 0.0 0.00 0.00 0.00 83 1011.4
20260904040924 80 143 0.0 0.0 0.00 0.00 0.00 83 1011.5
20260904040423 80 86 0.0 0.0 0.00 0.00 0.00 83 1011.4
20260904035920 80 75 0.0 0.0 0.00 0.00 0.00 83 1011.4
20260904035415 81 132 0.0 0.0 0.00 0.00 0.00 82 1011.2
20260904034915 81 118 0.0 0.0 0.00 0.00 0.00 81 1011.5
20260904034410 81 111 0.0 0.0 0.00 0.00 0.00 81 1011.6
20260904033906 81 69 0.0 0.0 0.00 0.00 0.00 80 1011.4
20260904033402 81 66 0.0 0.0 0.00 0.00 0.00 80 1011.1
20260904032857 81 96 0.0 0.0 0.00 0.00 0.00 80 1011.3
20260904032352 81 123 0.0 0.0 0.00 0.00 0.00 79 1011.0
20260904031846 81 112 0.0 0.0 0.00 0.00 0.00 79 1011.3
20260904031342 81 75 0.0 0.0 0.00 0.00 0.00 78 1011.0
20260904030838 81 54 0.0 0.0 0.00 0.00 0.00 78 1011.2
20260904030333 82 91 0.0 0.0 0.00 0.00 0.00 78 1011.4
20260904025829 82 98 0.0 0.0 0.00 0.19 0.19 77 1011.5
20260904025325 82 4 0.0 0.0 0.00 0.19 0.19 77 1011.7
20260904024824 81 120 0.0 0.0 0.00 0.19 0.19 78 1011.6
20260904024319 81 114 0.0 0.0 0.00 0.19 0.19 78 1011.4
20260904023816 81 49 0.0 0.0 0.00 0.19 0.19 78 1011.6
20260904023312 81 78 0.0 0.0 0.00 0.19 0.19 78 1011.7
20260904022811 81 88 0.0 0.0 0.00 0.19 0.19 78 1011.5
20260904022308 82 76 0.0 0.0 0.00 0.19 0.19 78 1011.6
20260904021805 82 53 0.0 0.0 0.00 0.19 0.19 77 1011.8
20260904021259 82 102 0.0 0.0 0.00 0.19 0.19 76 1012.0
20260904020754 82 80 0.0 0.0 0.00 0.19 0.19 76 1012.2
20260904020254 82 124 0.0 0.0 0.00 0.19 0.19 76 1012.1
20260904015753 82 101 0.0 0.0 0.00 0.19 0.19 76 1012.1
20260904015248 82 125 0.0 0.0 0.00 0.19 0.19 76 1012.3
20260904014746 82 115 0.0 0.0 0.00 0.19 0.19 77 1012.2
20260904014242 82 120 0.0 0.0 0.00 0.19 0.19 77 1012.3
20260904013738 82 107 0.0 0.0 0.00 0.19 0.19 78 1012.2
20260904013234 82 104 0.0 0.0 0.00 0.19 0.19 78 1012.1
20260904012730 82 80 0.0 0.0 0.00 0.19 0.19 77 1012.2
20260904012229 82 87 0.0 0.0 0.00 0.19 0.19 76 1012.1
20260904011728 82 96 0.0 0.0 0.00 0.19 0.19 75 1011.9
20260904011224 82 89 0.0 0.0 0.00 0.19 0.19 74 1012.2
20260904010719 82 77 0.0 0.0 0.00 0.19 0.19 74 1011.7
20260904010215 82 109 0.0 0.0 0.00 0.19 0.19 75 1011.9
20260904005710 82 106 0.0 0.0 0.00 0.19 0.19 74 1011.9
20260904005207 82 96 0.0 0.0 0.00 0.19 0.19 74 1012.2
20260904004706 82 74 0.0 0.0 0.00 0.19 0.19 74 1011.7
20260904004201 82 99 0.0 0.0 0.00 0.19 0.19 74 1011.6
20260904003656 82 80 0.0 0.0 0.00 0.19 0.19 73 1011.6
20260904003153 83 101 0.0 0.0 0.00 0.19 0.19 73 1012.1
20260904002648 83 76 0.0 0.0 0.00 0.19 0.19 72 1012.0
20260904002143 84 94 0.0 0.0 0.00 0.19 0.19 71 1012.0
20260904001639 84 104 0.0 0.0 0.00 0.19 0.19 71 1011.9
20260904001137 84 96 0.0 0.0 0.00 0.19 0.19 70 1011.9
20260904000633 84 125 0.0 0.0 0.00 0.19 0.19 70 1011.8
20260904000128 84 101 0.0 0.0 0.00 0.19 0.19 70 1011.7
20260903235628 84 125 0.0 0.0 0.00 0.19 0.19 71 1011.5
20260903235124 84 118 0.0 0.0 0.00 0.19 0.19 70 1011.5
20260903234619 84 89 0.0 0.0 0.00 0.19 0.19 70 1011.3
20260903234115 84 115 0.0 0.0 0.00 0.19 0.19 69 1011.3
20260903233611 84 116 0.0 0.0 0.00 0.19 0.19 70 1011.4
20260903233106 84 107 0.0 0.0 0.00 0.19 0.19 70 1011.3